| time (UTC) | temp F | wind direction | speed knots | gust knots | rain 1hr in | rain 24hr in | rain mn in | humidity % | barometer mb |
| 20260503203004 | 63 | 250 | 7.8 | 0.0 | 0.00 | 0.00 | 0.00 | 55 | 1012.0 |
| 20260503194504 | 64 | 260 | 7.8 | 0.0 | 0.00 | 0.00 | 0.00 | 52 | 1011.0 |
| 20260503193005 | 64 | 250 | 10.4 | 0.0 | 0.00 | 0.00 | 0.00 | 48 | 1011.0 |
| 20260503190004 | 66 | 240 | 13.0 | 0.0 | 0.00 | 0.00 | 0.00 | 48 | 1011.0 |
| 20260503184504 | 66 | 240 | 13.0 | 0.0 | 0.00 | 0.00 | 0.00 | 48 | 1011.0 |
| 20260503183004 | 68 | 250 | 12.2 | 0.0 | 0.00 | 0.00 | 0.00 | 45 | 1011.0 |
| 20260503180004 | 68 | 250 | 12.2 | 0.0 | 0.00 | 0.00 | 0.00 | 45 | 1011.0 |
| 20260503174503 | 68 | 250 | 12.2 | 0.0 | 0.00 | 0.00 | 0.00 | 45 | 1011.0 |
| 20260503173004 | 68 | 230 | 13.0 | 0.0 | 0.00 | 0.00 | 0.00 | 45 | 1011.0 |
| 20260503171504 | 68 | 230 | 13.0 | 0.0 | 0.00 | 0.00 | 0.00 | 45 | 1011.0 |
| 20260503081504 | 55 | 0 | 1.7 | 0.0 | 0.00 | 0.00 | 0.00 | 100 | 1014.0 |
| 20260503054503 | 54 | 340 | 4.3 | 0.0 | 0.00 | 0.00 | 0.00 | 100 | 1014.0 |
| 20260503053004 | 52 | 360 | 0.9 | 0.0 | 0.00 | 0.00 | 0.00 | 100 | 1014.0 |
| 20260503044504 | 54 | 360 | 0.9 | 0.0 | 0.00 | 0.00 | 0.00 | 100 | 1014.0 |
| 20260503043004 | 54 | 0 | 1.7 | 0.0 | 0.00 | 0.00 | 2.00 | 100 | 1014.0 |
| 20260503041503 | 54 | 0 | 1.7 | 0.0 | 0.00 | 0.00 | 2.00 | 100 | 1014.0 |
| 20260503040005 | 54 | 330 | 0.9 | 0.0 | 0.00 | 0.00 | 0.00 | 100 | 1014.0 |
| 20260503033004 | 54 | 350 | 0.9 | 0.0 | 0.00 | 0.00 | 0.00 | 100 | 1014.0 |
| 20260503024504 | 54 | 0 | 0.9 | 0.0 | 0.00 | 0.00 | 0.00 | 100 | 1015.0 |
| 20260503021504 | 54 | 80 | 0.9 | 0.0 | 0.00 | 0.00 | 0.00 | 100 | 1015.0 |
| 20260503020005 | 55 | 0 | 1.7 | 0.0 | 0.00 | 0.00 | 0.00 | 100 | 1015.0 |
| 20260503014504 | 55 | 0 | 1.7 | 0.0 | 0.00 | 0.00 | 0.00 | 100 | 1015.0 |
| 20260503010004 | 55 | 0 | 1.7 | 0.0 | 0.00 | 0.00 | 0.00 | 100 | 1015.0 |
| 20260503004504 | 55 | 0 | 1.7 | 0.0 | 0.00 | 0.00 | 0.00 | 100 | 1015.0 |
| 20260503003004 | 55 | 0 | 0.9 | 0.0 | 0.00 | 0.00 | 0.00 | 100 | 1016.0 |
| 20260502234504 | 57 | 70 | 0.9 | 0.0 | 0.00 | 0.00 | 0.00 | 100 | 1015.0 |
| 20260502231504 | 55 | 0 | 1.7 | 0.0 | 0.00 | 0.00 | 0.00 | 100 | 1015.0 |
| 20260502230005 | 59 | 160 | 2.6 | 0.0 | 0.00 | 0.00 | 0.00 | 87 | 1016.0 |
| 20260502224504 | 59 | 160 | 2.6 | 0.0 | 0.00 | 0.00 | 0.00 | 87 | 1016.0 |
| 20260502223004 | 57 | 0 | 1.7 | 0.0 | 0.00 | 0.00 | 0.00 | 82 | 1016.0 |
| 20260502221504 | 57 | 0 | 1.7 | 0.0 | 0.00 | 0.00 | 0.00 | 82 | 1016.0 |
| 20260502220006 | 57 | 0 | 0.9 | 0.0 | 0.00 | 0.00 | 0.00 | 82 | 1016.0 |
| 20260502214504 | 57 | 0 | 0.9 | 0.0 | 0.00 | 0.00 | 0.00 | 82 | 1016.0 |
| 20260502210004 | 63 | 210 | 5.2 | 0.0 | 0.00 | 0.00 | 0.00 | 67 | 1015.0 |
| 20260502204505 | 63 | 210 | 5.2 | 0.0 | 0.00 | 0.00 | 0.00 | 67 | 1015.0 |